Weather History for Redmond, OR

Change the Weather History Date:

Friday, January 17, 2014

  Actual Average Record
Temperature  
Mean Temperature 39 °F 33 °F  
Max Temperature 62 °F 43 °F 63 °F (1959)
Min Temperature 16 °F 24 °F -6 °F (1957)
Degree Days  
Heating Degree Days 26 32  
Month to date heating degree days 479 561  
Since 1 July heating degree days 3374 3401  
Cooling Degree Days 0 0  
Month to date cooling degree days 0 0  
Year to date cooling degree days 0 0  
Moisture  
Dew Point 20 °F    
Average Humidity 52    
Maximum Humidity 84    
Minimum Humidity 20    
Precipitation  
Precipitation 0.00 in 0.03 in 0.82 in (1971)
Month to date precipitation 0.26 0.58  
Year to date precipitation 0.26 0.58  
Sea Level Pressure  
Sea Level Pressure 30.34 in    
Wind  
Wind Speed 4 mph (SSE)    
Max Wind Speed 9 mph    
Max Gust Speed 11 mph    
Visibility 10 miles    
Events      
T = Trace of Precipitation, MM = Missing Value Source: NWS Daily Summary

Daily Weather History Graph

Daily Weather History Graph

Search for Another Location

Airport:

Trip Planner

Search our weather history database for the weather conditions in past years. The results will help you decide how hot, cold, wet, or windy it might be!

Date:

Astronomy

Jan. 17, 2014 Rise Set
Actual Time 7:35 AM PST 4:54 PM PST
Civil Twilight 7:03 AM PST 5:26 PM PST
Nautical Twilight 6:27 AM PST 6:02 PM PST
Astronomical Twilight 5:53 AM PST 6:36 PM PST
Moon 6:51 PM PST (1/17) 8:01 AM PST (1/17)
Length of Visible Light 10h 22m
Length of Day
9h 18m
Full, 98% of the Moon is Illuminated
Jan 17
Full
Jan 23
Last Quarter
Jan 30
New
Feb 6
First Quarter
Feb 14
Full

Hourly Weather History & Observations

Time (PST) Temp. Windchill Dew Point Humidity Pressure Visibility Wind Dir Wind Speed Gust Speed Precip Events Conditions
12:56 AM 24.1 °F 18.2 °F 18.0 °F 77% 30.38 in 10.0 mi SSE 4.6 mph - N/A   Clear
1:56 AM 18.0 °F - 14.0 °F 84% 30.39 in 10.0 mi Calm Calm - N/A   Clear
2:56 AM 17.1 °F - 14.0 °F 88% 30.39 in 10.0 mi Calm Calm - N/A   Clear
3:56 AM 21.0 °F 14.6 °F 15.1 °F 78% 30.38 in 10.0 mi SSW 4.6 mph - N/A   Clear
4:56 AM 23.0 °F 17.0 °F 16.0 °F 74% 30.39 in 10.0 mi ESE 4.6 mph - N/A   Clear
5:56 AM 21.9 °F 14.5 °F 15.1 °F 75% 30.39 in 10.0 mi SE 5.8 mph - N/A   Clear
6:56 AM 18.0 °F - 12.9 °F 81% 30.41 in 10.0 mi Calm Calm - N/A   Clear
7:56 AM 21.0 °F 16.2 °F 14.0 °F 74% 30.41 in 10.0 mi NNE 3.5 mph - N/A   Clear
8:56 AM 32.0 °F 28.7 °F 21.0 °F 64% 30.39 in 10.0 mi East 3.5 mph - N/A   Clear
9:56 AM 39.0 °F 34.8 °F 21.9 °F 50% 30.39 in 10.0 mi East 5.8 mph - N/A   Clear
10:56 AM 48.9 °F - 21.0 °F 33% 30.35 in 10.0 mi ESE 6.9 mph - N/A   Clear
11:56 AM 52.0 °F - 21.0 °F 30% 30.32 in 10.0 mi ENE 5.8 mph - N/A   Clear
12:56 PM 57.0 °F - 19.9 °F 24% 30.27 in 10.0 mi Calm Calm - N/A   Clear
1:56 PM 61.0 °F - 19.9 °F 21% 30.25 in 10.0 mi Variable 5.8 mph - N/A   Clear
2:56 PM 62.1 °F - 21.0 °F 21% 30.25 in 10.0 mi NE 3.5 mph - N/A   Clear
3:56 PM 55.9 °F - 28.0 °F 34% 30.26 in 10.0 mi NNW 10.4 mph - N/A   Clear
4:56 PM 46.0 °F 43.1 °F 26.1 °F 46% 30.28 in 10.0 mi NW 5.8 mph - N/A   Clear
5:56 PM 39.9 °F 37.8 °F 25.0 °F 55% 30.31 in 10.0 mi WNW 3.5 mph - N/A   Clear
6:56 PM 36.0 °F 31.1 °F 24.1 °F 62% 30.34 in 10.0 mi West 5.8 mph - N/A   Clear
7:56 PM 35.1 °F 29.3 °F 24.1 °F 64% 30.34 in 10.0 mi West 6.9 mph - N/A   Clear
8:56 PM 30.0 °F 26.5 °F 21.9 °F 72% 30.33 in 10.0 mi SW 3.5 mph - N/A   Clear
9:56 PM 26.1 °F 21.9 °F 21.0 °F 81% 30.34 in 10.0 mi South 3.5 mph - N/A   Clear
10:56 PM 24.1 °F 19.7 °F 19.9 °F 84% 30.33 in 10.0 mi South 3.5 mph - N/A   Clear
11:56 PM 24.1 °F 18.2 °F 19.0 °F 81% 30.32 in 10.0 mi SSE 4.6 mph - N/A   Clear